DateTime,Index
2002102318,0.0
2002102400,0.0
2002102406,0.0
2002102412,0.0
2002102418,0.0
2002102500,0.0
2002102506,0.0
2002102512,0.0
2002102518,0.0
2002102600,1225.0
2002102606,1225.0
2002102612,1600.0
2002102618,2025.0
2002102700,2025.0
2002102706,2500.0
2002102712,3025.0
2002102718,3025.0
2002102800,3025.0
2002102806,3025.0
2002102812,3600.0
2002102818,4225.0
2002102900,4225.0
2002102906,4225.0
2002102912,4225.0
2002102918,4225.0
2002103000,3025.0
2002103006,3025.0
2002103012,2500.0
2002103018,3025.0
2002103100,3600.0
2002103106,4225.0
2002103112,4225.0
2002103118,4225.0
2002110100,4225.0
2002110106,4225.0
2002110112,5625.0
2002110118,5625.0
2002110200,5625.0
2002110206,5625.0
2002110212,5625.0
2002110218,5625.0
2002110300,5625.0
2002110306,5625.0
2002110312,5625.0
2002110318,5625.0
2002110400,4900.0
2002110406,4900.0
2002110412,4900.0
2002110418,5625.0
2002110500,4900.0
2002110506,5625.0
2002110512,4900.0
2002110518,4225.0
2002110600,4225.0
2002110606,3600.0
2002110612,3025.0
2002110618,3025.0
2002110700,2025.0
2002110706,1225.0
